Baton Rouge, LA

12:52 PM CDT on March 26, 2017 (GMT -0500)
Baton Rouge Metro-Ryan

Weather History for KBTR - March, 2012

Change the Weather History Date:

Wednesday, March 7, 2012

  Actual Average Record
Temperature  
Mean Temperature 69 °F 60 °F  
Max Temperature 80 °F 71 °F 85 °F (1921)
Min Temperature 57 °F 49 °F 29 °F (1901)
Degree Days  
Heating Degree Days 0 7  
Month to date heating degree days 27 51  
Since 1 July heating degree days 1106 1386  
Cooling Degree Days 4 1  
Month to date cooling degree days 28 7  
Year to date cooling degree days 107 38  
Growing Degree Days 18 (Base 50)    
Moisture  
Dew Point 60 °F    
Average Humidity 77    
Maximum Humidity 100    
Minimum Humidity 54    
Precipitation  
Precipitation 0.00 in 0.15 in 2.16 in (1895)
Month to date precipitation 0.31 1.08  
Year to date precipitation 13.62 11.84  
Snow  
Snow 0.00 in - - ()
Month to date snowfall 0.0  
Since 1 July snowfall 0.0  
Snow Depth 0.00 in    
Sea Level Pressure  
Sea Level Pressure 30.19 in    
Wind  
Wind Speed 10 mph (ESE)    
Max Wind Speed 18 mph    
Max Gust Speed 26 mph    
Visibility 10 miles    
Events      
T = Trace of Precipitation, MM = Missing Value Source: NWS Daily Summary

Daily Weather History Graph

Daily Weather History Graph

Search for Another Location

Airport or City:

Trip Planner

Search our weather history database for the weather conditions in past years. The results will help you decide how hot, cold, wet, or windy it might be!

Date:

Astronomy

Mar. 07, 2012 Rise Set
Actual Time 6:23 AM CST 6:07 PM CST
Civil Twilight 5:59 AM CST 6:31 PM CST
Nautical Twilight 5:31 AM CST 6:59 PM CST
Astronomical Twilight 5:03 AM CST 7:27 PM CST
Moon 5:42 PM CST (3/7) 5:33 AM CST (3/7)
Length of Visible Light 12h 32m
Length of Day
11h 44m
Waxing Gibbous, 99% of the Moon is Illuminated
Mar 7
Waxing Gibbous
Mar 8
Full
Mar 14
Last Quarter
Mar 22
New
Mar 30
First Quarter

Hourly Weather History & Observations

Time (CST) Temp. Dew Point Humidity Pressure Visibility Wind Dir Wind Speed Gust Speed Precip Events Conditions
12:53 AM 60.1 °F 57.0 °F 90% 30.25 in 10.0 mi ESE 5.8 mph - N/A   Clear
1:53 AM 60.1 °F 55.0 °F 83% 30.22 in 10.0 mi ESE 6.9 mph - N/A   Clear
2:53 AM 59.0 °F 55.0 °F 87% 30.20 in 10.0 mi ESE 5.8 mph - N/A   Clear
3:53 AM 57.9 °F 55.9 °F 93% 30.19 in 10.0 mi East 5.8 mph - N/A   Clear
4:53 AM 57.0 °F 55.0 °F 93% 30.21 in 10.0 mi East 4.6 mph - N/A   Scattered Clouds
5:53 AM 57.0 °F 55.9 °F 96% 30.22 in 10.0 mi ENE 3.5 mph - N/A   Mostly Cloudy
6:53 AM 57.9 °F 57.0 °F 97% 30.23 in 10.0 mi ENE 5.8 mph - N/A   Mostly Cloudy
7:53 AM 61.0 °F 57.0 °F 87% 30.23 in 10.0 mi East 8.1 mph - N/A   Scattered Clouds
8:53 AM 69.1 °F 57.9 °F 68% 30.22 in 10.0 mi SE 13.8 mph 19.6 mph N/A   Scattered Clouds
9:53 AM 71.1 °F 60.1 °F 68% 30.25 in 10.0 mi SE 11.5 mph - N/A   Overcast
10:53 AM 73.9 °F 61.0 °F 64% 30.25 in 10.0 mi SE 11.5 mph - N/A   Overcast
11:53 AM 75.9 °F 60.1 °F 58% 30.24 in 10.0 mi SE 11.5 mph 20.7 mph N/A   Overcast
1:53 PM - - N/A% 30.18 in - North - - N/A   Unknown
2:53 PM - - N/A% 30.16 in - North - - N/A   Unknown
3:53 PM 79.0 °F 61.0 °F 54% 30.14 in - SE 12.7 mph - N/A   Unknown
4:53 PM 75.9 °F 60.1 °F 58% 30.14 in 10.0 mi SSE 18.4 mph 26.5 mph N/A   Mostly Cloudy
5:53 PM 73.9 °F 63.0 °F 68% 30.15 in 10.0 mi SE 15.0 mph 21.9 mph N/A   Mostly Cloudy
6:53 PM 72.0 °F 64.0 °F 76% 30.15 in 10.0 mi SE 15.0 mph 21.9 mph N/A   Overcast
7:23 PM 71.6 °F 64.4 °F 78% 30.16 in 10.0 mi ESE 10.4 mph - N/A   Overcast
7:53 PM 70.0 °F 64.0 °F 81% 30.17 in 10.0 mi ESE 9.2 mph - N/A   Overcast
8:53 PM 69.1 °F 64.0 °F 84% 30.17 in 10.0 mi East 10.4 mph 24.2 mph N/A   Overcast
9:53 PM 69.1 °F 64.9 °F 87% 30.16 in 10.0 mi ESE 8.1 mph - N/A   Overcast
10:01 PM 69.8 °F 64.4 °F 83% 30.17 in 10.0 mi ESE 9.2 mph - N/A   Overcast
10:45 PM 69.8 °F 64.4 °F 83% 30.16 in 10.0 mi SE 9.2 mph 18.4 mph N/A   Overcast
10:53 PM 69.1 °F 64.9 °F 87% 30.16 in 10.0 mi SE 12.7 mph - N/A   Overcast
11:53 PM 70.0 °F 64.9 °F 84% 30.17 in 10.0 mi SE 13.8 mph 18.4 mph N/A   Overcast